Powrót do katalogu

OPS 9334

DATS

AktywnyMilitariaMEO
NORAD 2865·PAYLOAD·🇺🇸 United States

Wystrzelony Jul 1, 1967 z Cape Canaveral Space Force Station

Loading…

Następne Przeloty (najbliższe 24 godziny)

TLE

ŚwieżeSource: Space-Track

Epoka: Sep 14, 2026, 14:20 UTC

1 02865U 67066D   26257.59763444 -.00000096  00000-0  00000-0 0  9996
2 02865   2.9238  93.1028 0053704 229.9506 358.6406  1.09624447131141

Śledź OPS 9334 w czasie rzeczywistym z AllMySat

Download on the App Store